Location: Audinghen
(50.8518°N, 1.6129°E)
Time: 04:18:15
(UTC+00:00)

Cosmos 1464 Rocket - Pass Details

Date: 07 August 2020
Orbit: 952 x 1002 km, 82.9° (Epoch: 19 September)

Event Time Altitude Azimuth Distance (km) Brightness Sun altitude
Exits shadow 00:08:51 41° 151° (SSE) 1,390 4.4 -22.8°
Maximum altitude 00:10:53 60° 93° (E) 1,113 4.2 -22.8°
Drops below altitude 10° 00:16:59 10° 16° (NNE) 2,722 7.4 -22.7°
Sets 00:19:31 0° 13° (NNE) 3,666 8.5 -22.7°
